Weather History for Rockwall, TX

Change the Weather History Date:

Wednesday, October 2, 2013

  Actual Average (KDFW) Record (KDFW)
Temperature  
Mean Temperature 80 °F 72 °F  
Max Temperature 87 °F 83 °F 99 °F (1951)
Min Temperature 72 °F 61 °F 47 °F (1985)
Degree Days  
Heating Degree Days 0 1  
Month to date heating degree days 2  
Since 1 July heating degree days 8  
Cooling Degree Days 14 8  
Month to date cooling degree days 16  
Year to date cooling degree days 2593  
Growing Degree Days 30 (Base 50)    
Moisture  
Dew Point 70 °F    
Average Humidity 78    
Maximum Humidity 96    
Minimum Humidity 54    
Precipitation  
Precipitation 0.00 in 0.10 in 3.54 in (1998)
Month to date precipitation 0.19  
Year to date precipitation 26.85  
Snow  
Snow 0.00 in 0.00 in 0.00 in ()
Month to date snowfall 0.0  
Since 1 July snowfall 0.0  
Since 1 September snowfall 0.0  
Snow Depth -    
Sea Level Pressure  
Sea Level Pressure 29.93 in    
Wind  
Wind Speed 8 mph (SE)    
Max Wind Speed 15 mph    
Max Gust Speed 24 mph    
Visibility 10 miles    
Events      
T = Trace of Precipitation, MM = Missing Value Source: NWS Daily Summary

Daily Weather History Graph

Daily Weather History Graph

Search for Another Location

Airport:

Trip Planner

Search our weather history database for the weather conditions in past years. The results will help you decide how hot, cold, wet, or windy it might be!

Date:

Astronomy

Oct. 02, 2013 Rise Set
Actual Time 7:20 AM CDT 7:08 PM CDT
Civil Twilight 6:56 AM CDT 7:33 PM CDT
Nautical Twilight 6:27 AM CDT 8:01 PM CDT
Astronomical Twilight 5:58 AM CDT 8:30 PM CDT
Moon 5:01 AM CDT (10/2) 5:40 PM CDT (10/2)
Length of Visible Light 12h 37m
Length of Day
11h 47m
Waning Crescent, 6% of the Moon is Illuminated
Oct 2
Waning Crescent
Oct 4
New
Oct 11
First Quarter
Oct 18
Full
Oct 26
Last Quarter

Hourly Weather History & Observations

Time (CDT) Temp. Heat Index Dew Point Humidity Pressure Visibility Wind Dir Wind Speed Gust Speed Precip Events Conditions
12:15 AM 75.7 °F - 70.9 °F 85% 29.92 in 10.0 mi ESE 6.9 mph - N/A   Clear
12:35 AM 75.4 °F - 70.9 °F 86% 29.92 in 10.0 mi ESE 6.9 mph - N/A   Clear
12:55 AM 74.7 °F - 70.9 °F 88% 29.92 in 10.0 mi ESE 6.9 mph - N/A   Clear
1:15 AM 74.3 °F - 70.7 °F 88% 29.93 in 10.0 mi ESE 5.8 mph - N/A   Clear
1:35 AM 73.9 °F - 70.7 °F 90% 29.93 in 10.0 mi ESE 6.9 mph - N/A   Clear
1:55 AM 73.4 °F - 70.7 °F 91% 29.93 in 10.0 mi East 5.8 mph - N/A   Clear
2:15 AM 73.0 °F - 70.7 °F 92% 29.93 in 10.0 mi East 5.8 mph - N/A   Clear
2:35 AM 72.9 °F - 70.5 °F 92% 29.93 in 10.0 mi East 4.6 mph - N/A   Clear
2:55 AM 72.0 °F - 70.2 °F 94% 29.93 in 10.0 mi ESE 4.6 mph - N/A   Scattered Clouds
3:15 AM 72.0 °F - 70.3 °F 95% 29.93 in 10.0 mi ESE 5.8 mph - N/A   Scattered Clouds
3:35 AM 72.0 °F - 70.7 °F 96% 29.93 in 10.0 mi ESE 6.9 mph - N/A   Mostly Cloudy
3:55 AM 72.0 °F - 70.7 °F 96% 29.93 in 10.0 mi ESE 8.1 mph - N/A   Mostly Cloudy
4:15 AM 72.9 °F - 71.2 °F 95% 29.93 in 10.0 mi ESE 8.1 mph - N/A   Overcast
4:35 AM 73.2 °F - 71.6 °F 95% 29.93 in 10.0 mi ESE 10.4 mph - N/A   Overcast
4:55 AM 73.4 °F - 71.6 °F 94% 29.94 in 10.0 mi ESE 8.1 mph - N/A   Overcast
5:15 AM 73.4 °F - 71.6 °F 94% 29.94 in 10.0 mi ESE 8.1 mph - N/A   Overcast
5:35 AM 73.4 °F - 71.2 °F 93% 29.94 in 10.0 mi ESE 6.9 mph - N/A   Overcast
5:55 AM 72.9 °F - 71.1 °F 94% 29.94 in 10.0 mi ESE 6.9 mph - N/A   Overcast
6:15 AM 72.9 °F - 71.2 °F 95% 29.95 in 10.0 mi ESE 9.2 mph - N/A   Overcast
6:35 AM 73.4 °F - 71.1 °F 92% 29.95 in 10.0 mi SE 10.4 mph - N/A   Overcast
6:55 AM 73.4 °F - 70.7 °F 91% 29.96 in 10.0 mi SE 8.1 mph - N/A   Overcast
7:15 AM 73.6 °F - 70.7 °F 91% 29.96 in 10.0 mi SE 9.2 mph 16.1 mph N/A   Overcast
7:35 AM 73.4 °F - 70.7 °F 91% 29.96 in 10.0 mi ESE 8.1 mph - N/A   Mostly Cloudy
7:55 AM 73.4 °F - 70.7 °F 91% 29.97 in 10.0 mi ESE 8.1 mph - N/A   Scattered Clouds
8:15 AM 74.3 °F - 70.9 °F 89% 29.97 in 10.0 mi SE 8.1 mph - N/A   Scattered Clouds
8:35 AM 74.1 °F - 70.9 °F 90% 29.98 in 10.0 mi SE 10.4 mph - N/A   Mostly Cloudy
8:55 AM 74.7 °F - 71.2 °F 89% 29.98 in 10.0 mi SE 9.2 mph - N/A   Overcast
9:35 AM 76.1 °F - 71.4 °F 85% 29.99 in 10.0 mi SE 8.1 mph - N/A   Overcast
9:55 AM 76.6 °F - 71.6 °F 84% 29.99 in 10.0 mi SE 8.1 mph - N/A   Overcast
10:15 AM 77.0 °F - 71.2 °F 82% 29.99 in 10.0 mi SSE 11.5 mph - N/A   Overcast
10:35 AM 78.1 °F - 71.2 °F 79% 29.99 in 10.0 mi SSE 10.4 mph 16.1 mph N/A   Overcast
10:55 AM 79.9 °F - 71.4 °F 75% 29.99 in 10.0 mi SSE 10.4 mph 16.1 mph N/A   Overcast
11:15 AM 80.4 °F 83.9 °F 70.5 °F 72% 29.99 in 10.0 mi SSE 12.7 mph - N/A   Overcast
11:35 AM 82.9 °F 87.0 °F 70.0 °F 65% 29.99 in 10.0 mi SSE 11.5 mph 18.4 mph N/A   Overcast
11:55 AM 82.9 °F 87.2 °F 70.5 °F 66% 29.98 in 10.0 mi SSE 8.1 mph - N/A   Mostly Cloudy
12:15 PM 83.1 °F 87.3 °F 70.2 °F 65% 29.98 in 10.0 mi SSE 9.2 mph - N/A   Mostly Cloudy
12:35 PM 82.6 °F 86.8 °F 70.7 °F 67% 29.97 in 10.0 mi SSE 10.4 mph 16.1 mph N/A   Overcast
12:55 PM 82.0 °F 85.9 °F 70.2 °F 67% 29.96 in 10.0 mi South 6.9 mph 16.1 mph N/A   Overcast
1:15 PM 85.3 °F 90.1 °F 70.3 °F 61% 29.95 in 10.0 mi SE 10.4 mph 16.1 mph N/A   Overcast
1:35 PM 84.2 °F 88.4 °F 70.0 °F 62% 29.95 in 10.0 mi SE 9.2 mph - N/A   Mostly Cloudy
1:55 PM 84.2 °F 88.7 °F 70.2 °F 63% 29.93 in 10.0 mi SE 4.6 mph - N/A   Mostly Cloudy
2:15 PM 83.7 °F 87.5 °F 69.6 °F 62% 29.92 in 10.0 mi SE 8.1 mph - N/A   Overcast
2:35 PM 81.3 °F 86.5 °F 73.6 °F 77% 29.92 in 10.0 mi Calm Calm - N/A   Overcast
2:55 PM 83.5 °F 88.5 °F 71.4 °F 67% 29.90 in 10.0 mi SSE 5.8 mph - N/A   Mostly Cloudy
3:15 PM 86.0 °F 90.7 °F 70.3 °F 59% 29.90 in 10.0 mi SE 5.8 mph - N/A   Mostly Cloudy
3:35 PM 86.5 °F 91.0 °F 69.8 °F 57% 29.89 in 10.0 mi SSE 13.8 mph - N/A   Scattered Clouds
3:55 PM 87.1 °F 91.6 °F 69.4 °F 56% 29.88 in 10.0 mi SE 12.7 mph 21.9 mph N/A   Scattered Clouds
4:15 PM 86.0 °F 90.1 °F 69.3 °F 57% 29.89 in 10.0 mi SSE 12.7 mph 17.3 mph N/A   Scattered Clouds
4:35 PM 87.3 °F 91.2 °F 68.9 °F 54% 29.88 in 10.0 mi SE 11.5 mph - N/A   Mostly Cloudy
4:55 PM 86.2 °F 90.0 °F 68.7 °F 56% 29.88 in 10.0 mi ESE 10.4 mph 20.7 mph N/A   Scattered Clouds
5:15 PM 85.3 °F 89.4 °F 69.6 °F 59% 29.88 in 10.0 mi ESE 13.8 mph 19.6 mph N/A   Clear
5:35 PM 85.6 °F 89.1 °F 68.5 °F 56% 29.87 in 10.0 mi SE 15.0 mph 18.4 mph N/A   Clear
5:55 PM 84.4 °F 87.1 °F 66.9 °F 56% 29.88 in 10.0 mi ESE 15.0 mph 24.2 mph N/A   Clear
6:15 PM 83.8 °F 87.0 °F 68.2 °F 59% 29.88 in 10.0 mi SE 9.2 mph 19.6 mph N/A   Clear
6:35 PM 83.3 °F 85.9 °F 67.3 °F 58% 29.88 in 10.0 mi ESE 5.8 mph 16.1 mph N/A   Clear
6:55 PM 82.2 °F 85.5 °F 68.7 °F 64% 29.88 in 10.0 mi ESE 5.8 mph 16.1 mph N/A   Clear
7:15 PM 81.1 °F 84.4 °F 69.1 °F 67% 29.87 in 10.0 mi ESE 8.1 mph - N/A   Clear
7:35 PM 80.4 °F 83.5 °F 69.3 °F 69% 29.88 in 10.0 mi SE 5.8 mph - N/A   Clear
7:55 PM 79.7 °F - 69.3 °F 70% 29.88 in 10.0 mi SE 4.6 mph - N/A   Clear
8:15 PM 78.8 °F - 69.8 °F 74% 29.89 in 10.0 mi ESE 3.5 mph - N/A   Clear
8:35 PM 77.9 °F - 69.8 °F 76% 29.89 in 10.0 mi ESE 5.8 mph - N/A   Clear
8:55 PM 77.4 °F - 69.8 °F 77% 29.90 in 10.0 mi ESE 3.5 mph - N/A   Clear
9:15 PM 77.0 °F - 69.8 °F 78% 29.91 in 10.0 mi ESE 5.8 mph - N/A   Scattered Clouds
9:35 PM 77.0 °F - 69.8 °F 78% 29.92 in 10.0 mi ESE 5.8 mph - N/A   Clear
9:55 PM 76.1 °F - 70.0 °F 81% 29.92 in 10.0 mi ESE 4.6 mph - N/A   Clear
10:15 PM 76.3 °F - 69.6 °F 80% 29.92 in 10.0 mi SE 8.1 mph - N/A   Clear
10:35 PM 76.1 °F - 68.9 °F 78% 29.92 in 10.0 mi SE 8.1 mph - N/A   Clear
10:55 PM 75.6 °F - 68.4 °F 78% 29.93 in 10.0 mi SE 6.9 mph - N/A   Clear
11:15 PM 75.0 °F - 68.4 °F 80% 29.92 in 10.0 mi SE 6.9 mph - N/A   Clear
11:35 PM 74.7 °F - 68.4 °F 81% 29.93 in 10.0 mi ESE 6.9 mph - N/A   Clear
11:55 PM 73.9 °F - 68.4 °F 83% 29.93 in 10.0 mi ESE 4.6 mph - N/A   Clear